Tracking 30306 objects as of 23-Apr-2025
HD Live streaming from Space Station
objects crossing your sky now

QIANFAN-57

Track QIANFAN-57 now!
10-day predictions
QIANFAN-57 is classified as:


NORAD ID: 62787
Int'l Code: 2025-016C
Perigee: 1,066.1 km
Apogee: 1,085.8 km
Inclination: 89.0 °
Period: 106.6 minutes
Semi major axis: 7446 km
RCS: Unknown
Launch date: January 23, 2025
Source: People's Republic of China (PRC)
Launch site: Taiyaun Space Center, China (TSC)
Your satellite tracking list
Your tracking list is empty




NASA's NSSDC Master Catalog

Two Line Element Set (TLE):
1 62787U 25016C   25112.92681086  .00000068  00000-0  87397-4 0  9997
2 62787  88.9848 127.2210 0013228 309.9650  50.0339 13.50945235 15632
Source of the keplerian elements: AFSPC